This is the latest recevied weather packets stored in our database for station/object KE8URB. If no packets are shown the sender has not sent any weather packets the latest 10 day(s).
| Time | Temp. | Humidity | Pressure | Rain* | Wind** | Luminosity | Snow |
|---|---|---|---|---|---|---|---|
| 1787761417 | 23.89° C | 71% | 1018.3 hPa | 0 mm | - | 402 W/m² | - |
| 1787761117 | 23.89° C | 74% | 1018.5 hPa | 0 mm | - | 65 W/m² | - |
| 1787760817 | 23.33° C | 72% | 1018.3 hPa | 0 mm | - | 79 W/m² | - |
| 1787760515 | 23.33° C | 72% | 1018.2 hPa | 0 mm | - | 62 W/m² | - |
| 1787760210 | 23.33° C | 72% | 1018.2 hPa | 0 mm | - | 60 W/m² | - |
| 1787759907 | 22.78° C | 72% | 1018.4 hPa | 0 mm | - | 65 W/m² | - |
| 1787759602 | 22.78° C | 73% | 1018.3 hPa | 0 mm | - | 69 W/m² | - |
| 1787759298 | 22.78° C | 74% | 1018.3 hPa | 0 mm | - | 40 W/m² | - |
| 1787758993 | 22.78° C | 73% | 1018.3 hPa | 0 mm | - | 52 W/m² | - |
| 1787758692 | 22.78° C | 74% | 1018.5 hPa | 0 mm | - | 72 W/m² | - |
| 1787758388 | 22.78° C | 73% | 1018.3 hPa | 0 mm | - | 49 W/m² | - |
| 1787758086 | 22.78° C | 77% | 1018.2 hPa | 0 mm | - | 134 W/m² | - |
| 1787757783 | 22.78° C | 74% | 1018.4 hPa | 0 mm | - | 150 W/m² | - |
| 1787757483 | 22.22° C | 75% | 1018.6 hPa | 0 mm | - | 60 W/m² | - |
| 1787757177 | 22.22° C | 76% | 1018.4 hPa | 0 mm | - | 46 W/m² | - |
| 1787756876 | 22.78° C | 74% | 1018.1 hPa | 0 mm | - | 46 W/m² | - |
| 1787756573 | 22.22° C | 76% | 1018.1 hPa | 0 mm | - | 92 W/m² | - |
| 1787756270 | 22.22° C | 78% | 1018 hPa | 0 mm | - | 48 W/m² | - |
| 1787755966 | 22.22° C | 78% | 1018.3 hPa | 0 mm | - | 44 W/m² | - |
| 1787755665 | 22.22° C | 77% | 1018.1 hPa | 0 mm | - | 64 W/m² | - |
| 1787755361 | 21.67° C | 76% | 1018.2 hPa | 0 mm | - | 49 W/m² | - |
| 1787755060 | 21.67° C | 77% | 1018.1 hPa | 0 mm | - | 51 W/m² | - |
| 1787754755 | 21.67° C | 77% | 1018 hPa | 0 mm | - | 44 W/m² | - |
| 1787754452 | 21.67° C | 77% | 1018.1 hPa | 0 mm | - | 43 W/m² | - |
| 1787754147 | 21.67° C | 79% | 1018.1 hPa | 0 mm | - | 45 W/m² | - |
* Rain latest hour (hover to see other rain measurements)
** Current wind speed in m/s (hover to see current wind gust speed)